[[{"header":{"parameterUnit":"m.s-1","parameterCategory":2,"la1":30.2991,"la2":30.254,"lo1":-89.0895,"lo2":-89.0444,"dy":0.0017,"dx":0.0017,"nx":28,"ny":28,"refTime":"2023-08-13T21:00:00:Z","depth":"0","parameterNumber":2,"parameterNumberName":"U-component_of_CURRENTS"},"data":[0,0,0,0,0,0,0,0,0,0,0,0,0,0,0,0,0,0,0,0,0,0,0,0,0,0,0,0,0,0,0,0,0,0,0,0,0,0,0,0,0,0,0,0,0,0,0,0,0,0,0,0,0,0,0,0,0,0,0.4164,0.4165,0,0.4288,0.4289,0.429,0.4241,0.4238,0.4236,0.4233,0.4265,0.4269,0.4272,0,0,0,0,0,0,0,0,0,0,0,0,0,0.391,0.3914,0.4164,0.4165,0.4167,0.4288,0.4289,0.4291,0.4242,0.4238,0.4235,0.4232,0.4264,0.4268,0.4272,0,0,0,0,0,0,0,0,0,0,0,0,0,0.4023,0.3916,0.4163,0.4159,0.416,0.4287,0.4289,0.4291,0.4242,0.4238,0.4234,0.4231,0.4263,0.4268,0.4273,0.4384,0,0,0.4288,0.429,0,0,0,0,0,0,0,0,0.4017,0.4032,0.4158,0.416,0.4161,0.4247,0.4211,0.4318,0.4243,0.4209,0.4233,0.4229,0.4255,0.4261,0.4291,0.4386,0.4387,0.4289,0.4292,0.4294,0.4295,0,0,0,0,0,0,0,0.4009,0.4027,0.421,0.416,0.4162,0.416,0.4171,0.4232,0.4249,0.4211,0.4209,0.4228,0.4254,0.4286,0.4291,0.4388,0.4288,0.4293,0.4296,0.4298,0.4578,0.4582,0,0,0,0,0,0,0.4003,0.402,0.4206,0.4214,0.408,0.4168,0.418,0.4221,0.4251,0.4253,0.4231,0.4225,0.428,0.4285,0.4292,0.4387,0.4294,0.4299,0.4301,0.4574,0.4579,0.4584,0,0,0,0,0,0,0.3997,0.4019,0.4201,0.412,0.4143,0.4176,0.4223,0.4226,0.4245,0.4267,0.4266,0.4245,0.4277,0.4285,0.435,0.4389,0.4301,0.4305,0.4568,0.4575,0.4581,0.4603,0,0,0,0,0,0,0.399,0.4017,0.405,0.4121,0.4147,0.4269,0.4228,0.4232,0.4265,0.4258,0.428,0.4279,0.4274,0.4343,0.4355,0.4394,0.4309,0.4563,0.4571,0.4579,0.4596,0.4609,0.462,0,0,0,0,0,0.3981,0.4047,0.4052,0.4074,0.4191,0.4271,0.4285,0.4292,0.427,0.4291,0.4312,0.4278,0.4404,0.4351,0.4364,0.4405,0.4559,0.4569,0.4579,0.4591,0.4607,0.462,0,0,0,0,0,0,0.3967,0.4052,0.4056,0.4148,0.4198,0.4262,0.43,0.4304,0.4344,0.4335,0.4334,0.4338,0.4422,0.443,0.4371,0.452,0.4479,0.4492,0.4484,0.4499,0.4511,0.4537,0.4313,0,0,0,0,0,0.3981,0.4042,0.4113,0.4184,0.4213,0.4258,0.4293,0.43,0.4345,0.4357,0.4371,0.4413,0.4486,0.4496,0.4563,0.4635,0.4691,0.4678,0.469,0.4699,0.4737,0.4859,0.4884,0.4616,0.4616,0.4616,0,0,0.3998,0.4052,0.4088,0.4183,0.4226,0.4283,0.4268,0.4331,0.437,0.436,0.4417,0.4467,0.4525,0.4609,0.4645,0.4603,0.4809,0.4711,0.4718,0.4752,0.4872,0.4897,0.492,0.4623,0.4622,0.4621,0,0,0.4052,0.411,0.4166,0.4211,0.4279,0.4314,0.433,0.4395,0.441,0.4489,0.4504,0.4588,0.4658,0.4719,0.4758,0.4892,0.4888,0.4892,0.4941,0.5058,0.508,0.51,0.5204,0.5233,0.487,0.487,0.487,0,0.4063,0.414,0.4194,0.4252,0.4283,0.4325,0.4372,0.4428,0.4497,0.4526,0.4506,0.4684,0.473,0.4856,0.4902,0.4918,0.4967,0.4862,0.5069,0.509,0.511,0.5212,0.5244,0.4872,0.4872,0.4872,0.4871,0,0.4147,0.4199,0.4241,0.4317,0.4365,0.4418,0.4484,0.4532,0.4555,0.4601,0.4724,0.4812,0.4902,0.4942,0.4964,0.5128,0.5113,0.5082,0.5015,0.5138,0.5239,0.5271,0.4875,0.4874,0.4874,0.4873,0,0,0.4187,0.4275,0.4287,0.4298,0.439,0.4432,0.4518,0.4599,0.4648,0.4737,0.4809,0.4982,0.5013,0.5069,0.5108,0.5219,0.5415,0.5203,0.5208,0.5278,0.5663,0.5542,0.5565,0.5391,0.5397,0.5401,0.5673,0,0.4221,0.4298,0.4344,0.4405,0.4438,0.4493,0.4558,0.4639,0.4711,0.4798,0.4919,0.5017,0.506,0.5097,0.523,0.5377,0.5503,0.5345,0.5563,0.5571,0.5423,0.5601,0.5355,0.5566,0.5705,0.5711,0.5715,0,0.4269,0.431,0.4357,0.4404,0.4425,0.4468,0.4554,0.4628,0.4773,0.4818,0.4948,0.5031,0.5239,0.5232,0.5569,0.545,0.5584,0.5691,0.5702,0.561,0.5511,0.5474,0.5621,0.5409,0.5765,0.5761,0.5757,0,0.4222,0.4308,0.4324,0.4347,0.4429,0.445,0.4502,0.4628,0.4678,0.4837,0.4886,0.5115,0.5221,0.545,0.5674,0.5633,0.6014,0.5972,0.6001,0.5992,0.5845,0.5812,0.5791,0.6231,0.623,0.623,0.6229,0,0.4217,0.4229,0.4295,0.4305,0.4329,0.4404,0.445,0.4534,0.465,0.4719,0.4887,0.4986,0.5281,0.5504,0.5711,0.5959,0.605,0.6077,0.6078,0.5844,0.581,0.5665,0.5541,0.624,0.6237,0.6236,0.6234,0,0.4143,0.4191,0.4211,0.4283,0.4297,0.4317,0.4381,0.4424,0.4543,0.4643,0.4686,0.4931,0.5222,0.5499,0.5875,0.5979,0.6061,0.6286,0.5982,0.5942,0.5736,0.5623,0.5576,0.5439,0.6397,0.6395,0.6395,0,0.4102,0.4104,0.4168,0.417,0.419,0.4222,0.4238,0.4348,0.44,0.4607,0.4652,0.4932,0.5114,0.5595,0.5833,0.6163,0.6014,0.6102,0.6001,0.5739,0.5617,0.5454,0.5329,0.5834,0.5828,0.5824,0.582,0,0.4021,0.4043,0.4064,0.4078,0.4086,0.4094,0.4138,0.4152,0.4297,0.439,0.4551,0.4713,0.5116,0.5332,0.5704,0.5883,0.5749,0.6019,0.5843,0.5273,0.5005,0.4862,0.5632,0.5781,0.5785,0.5788,0.579,0.5791,0.3949,0.3951,0.3983,0.398,0.3977,0.3962,0.3929,0.4,0.406,0.4173,0.4404,0.4564,0.4855,0.5338,0.546,0.5434,0.5501,0.5376,0.5302,0.5197,0.4914,0.5587,0.5651,0.5654,0.5657,0.5659,0.5661,0,0.3873,0.3885,0.388,0.3865,0.3798,0.3848,0.3847,0.3805,0.3826,0.3994,0.4133,0.4315,0.4506,0.4715,0.4831,0.474,0.4625,0.4641,0.4345,0.4296,0.4991,0.4808,0.457,0.457,0.4571,0.4571,0.4571,0.4571,0.3842,0.3819,0.3823,0.3698,0.3659,0.356,0.3534,0.3507,0.3576,0.3597,0.3648,0.3815,0.4049,0.4204,0.4132,0.4074,0.3797,0.3679,0.3708,0.4138,0.42,0.4258,0.4058,0.3668,0.3667,0.289,0.2883,0.2878]},{"header":{"parameterUnit":"m.s-1","parameterCategory":2,"la1":30.2991,"la2":30.254,"lo1":-89.0895,"lo2":-89.0444,"dy":0.0017,"dx":0.0017,"nx":28,"ny":28,"refTime":"2023-08-13T21:00:00:Z","depth":"0","parameterNumber":3,"parameterNumberName":"V-component_of_CURRENTS"},"data":[0,0,0,0,0,0,0,0,0,0,0,0,0,0,0,0,0,0,0,0,0,0,0,0,0,0,0,0,0,0,0,0,0,0,0,0,0,0,0,0,0,0,0,0,0,0,0,0,0,0,0,0,0,0,0,0,0,0,0.0508,0.0508,0,0.0516,0.0516,0.0516,0.0434,0.0432,0.0429,0.0427,0.0338,0.0338,0.0338,0,0,0,0,0,0,0,0,0,0,0,0,0,0.0417,0.042,0.0508,0.0508,0.0508,0.0516,0.0516,0.0517,0.0435,0.0432,0.0429,0.0426,0.0338,0.0338,0.0338,0,0,0,0,0,0,0,0,0,0,0,0,0,0.0447,0.042,0.0508,0.0466,0.0462,0.0516,0.0516,0.0517,0.0436,0.0432,0.0428,0.0424,0.0338,0.0338,0.0338,0.0414,0,0,0.0338,0.0338,0,0,0,0,0,0,0,0,0.0445,0.0451,0.0472,0.0469,0.0465,0.0468,0.0451,0.0476,0.0436,0.0449,0.0427,0.0423,0.0373,0.037,0.0386,0.041,0.0406,0.0338,0.0338,0.0338,0.0338,0,0,0,0,0,0,0,0.0444,0.045,0.0514,0.0472,0.0468,0.0444,0.0445,0.0456,0.0433,0.0447,0.0441,0.0438,0.037,0.0386,0.0383,0.0405,0.0338,0.0338,0.0338,0.0338,0.0481,0.0484,0,0,0,0,0,0,0.0442,0.0449,0.0514,0.0514,0.0442,0.0449,0.0449,0.0473,0.0435,0.0425,0.0441,0.0434,0.0388,0.0383,0.0379,0.0459,0.0338,0.0338,0.0338,0.0477,0.0481,0.0486,0,0,0,0,0,0,0.0441,0.0449,0.0514,0.0477,0.0483,0.0454,0.0481,0.0475,0.0485,0.043,0.0418,0.0455,0.0385,0.0379,0.0406,0.0455,0.0338,0.0338,0.0472,0.0478,0.0484,0.0624,0,0,0,0,0,0,0.0439,0.0449,0.0481,0.0478,0.0485,0.0563,0.0485,0.0478,0.0487,0.0478,0.044,0.0427,0.0381,0.0407,0.0407,0.0452,0.0338,0.0468,0.0475,0.0482,0.0615,0.0634,0.065,0,0,0,0,0,0.0436,0.0506,0.0483,0.0491,0.0526,0.0565,0.0569,0.0534,0.0492,0.0524,0.0495,0.0428,0.0451,0.0411,0.0409,0.0456,0.0464,0.0473,0.0481,0.0607,0.063,0.065,0,0,0,0,0,0,0.0505,0.0503,0.0479,0.055,0.0557,0.055,0.0586,0.0554,0.0562,0.0547,0.0482,0.0472,0.0514,0.0482,0.0439,0.0523,0.0446,0.0455,0.0542,0.0564,0.0581,0.0606,0.0338,0,0,0,0,0,0.0531,0.0571,0.0562,0.0623,0.063,0.0609,0.0623,0.0598,0.0595,0.0593,0.0567,0.0549,0.0558,0.0554,0.0558,0.061,0.0577,0.0641,0.0659,0.0674,0.0697,0.069,0.0708,0.0514,0.0514,0.0513,0,0,0.0576,0.0581,0.0605,0.0638,0.0642,0.0683,0.0611,0.0645,0.0678,0.0586,0.0639,0.0616,0.0589,0.0642,0.0657,0.0612,0.0717,0.0685,0.0697,0.0712,0.0701,0.0719,0.0735,0.0519,0.0518,0.0517,0,0,0.0674,0.0691,0.074,0.0756,0.0762,0.0758,0.077,0.0771,0.077,0.0819,0.076,0.0776,0.0789,0.0781,0.0775,0.0905,0.0816,0.0899,0.1001,0.0994,0.1009,0.1022,0.1017,0.1028,0.0901,0.0901,0.0901,0,0.0721,0.078,0.0767,0.0815,0.0838,0.0796,0.0852,0.0869,0.0878,0.0898,0.0853,0.0897,0.0861,0.0923,0.0958,0.0943,0.092,0.0912,0.1015,0.1026,0.1037,0.1028,0.1038,0.0909,0.0908,0.0907,0.0906,0,0.0834,0.0883,0.0926,0.0961,0.0996,0.1046,0.1047,0.1086,0.1072,0.1072,0.1133,0.1103,0.1119,0.1116,0.1072,0.1143,0.1097,0.1038,0.0951,0.1064,0.1049,0.1057,0.092,0.0917,0.0915,0.0913,0,0,0.0925,0.0986,0.0999,0.1027,0.107,0.1107,0.1188,0.1242,0.129,0.1301,0.1371,0.1384,0.1348,0.1344,0.1292,0.1287,0.1334,0.12,0.1196,0.1181,0.1322,0.1219,0.1216,0.1279,0.1281,0.1283,0.1284,0,0.1007,0.1103,0.1123,0.1228,0.1275,0.1285,0.1367,0.141,0.1431,0.1495,0.1476,0.1519,0.144,0.1443,0.1436,0.1364,0.1361,0.134,0.1228,0.1226,0.1106,0.1224,0.1152,0.1141,0.1291,0.1293,0.1293,0,0.1094,0.1145,0.1246,0.1337,0.1363,0.1426,0.1527,0.1593,0.1667,0.1684,0.1721,0.1697,0.1726,0.1621,0.1579,0.1564,0.1467,0.1398,0.1395,0.1255,0.1137,0.1052,0.1148,0.0841,0.1305,0.1304,0.1303,0,0.1123,0.1233,0.1309,0.134,0.1441,0.15,0.1561,0.1647,0.1715,0.1797,0.1847,0.1866,0.1875,0.179,0.1658,0.1617,0.1587,0.1502,0.1327,0.1318,0.1216,0.1194,0.0989,0.147,0.147,0.147,0.147,0,0.1187,0.125,0.1324,0.1366,0.1476,0.1537,0.1659,0.1721,0.1828,0.1932,0.1935,0.2012,0.1912,0.1878,0.1735,0.1574,0.1646,0.138,0.1323,0.1264,0.1247,0.0938,0.083,0.147,0.147,0.147,0.147,0,0.1197,0.1246,0.1336,0.1446,0.1484,0.1559,0.1703,0.1796,0.1888,0.2024,0.206,0.213,0.21,0.198,0.1849,0.1665,0.136,0.1431,0.1372,0.1307,0.0823,0.073,0.0553,0.0463,0.1248,0.1246,0.1244,0,0.1204,0.1247,0.1366,0.142,0.1469,0.1583,0.1676,0.1803,0.1908,0.21,0.2174,0.2212,0.2271,0.2059,0.1753,0.1508,0.1297,0.1228,0.1129,0.0812,0.0667,0.0602,0.0537,0.1061,0.1058,0.1055,0.1053,0,0.1211,0.1248,0.1317,0.1426,0.1522,0.165,0.1788,0.1884,0.2061,0.22,0.2382,0.2458,0.227,0.2034,0.1669,0.1445,0.1014,0.1159,0.0855,0.0538,0.0437,0.0316,0.1041,0.1028,0.1031,0.1033,0.1034,0.1035,0.1197,0.1245,0.1331,0.1436,0.1556,0.1716,0.1832,0.2005,0.2205,0.2466,0.2521,0.2674,0.226,0.1773,0.144,0.0691,0.0809,0.0458,0.0387,0.0361,0.0221,0.0888,0.0781,0.0782,0.0783,0.0783,0.0784,0,0.1172,0.1241,0.1339,0.1484,0.1616,0.1692,0.1912,0.2061,0.2308,0.2562,0.2751,0.2574,0.2046,0.1464,0.0505,0.0004,-0.0131,-0.0257,-0.0379,-0.0393,0.0199,0.0127,-0.0157,-0.0156,-0.0156,-0.0156,-0.0155,-0.0155,0.1163,0.1234,0.1301,0.1497,0.1617,0.1816,0.1951,0.2197,0.2409,0.2678,0.2753,0.28,0.2247,0.0642,-0.051,-0.0746,-0.1024,-0.1074,-0.117,-0.0833,-0.0773,-0.0716,-0.0816,-0.1293,-0.1294,-0.1749,-0.1754,-0.1758]}],[{"header":{"parameterUnit":"m.s-1","parameterCategory":2,"la1":30.2991,"la2":30.254,"lo1":-89.0895,"lo2":-89.0444,"dy":0.0017,"dx":0.0017,"nx":28,"ny":28,"refTime":"2023-08-13T21:00:00:Z","depth":"2","parameterNumber":2,"parameterNumberName":"U-component_of_CURRENTS"},"data":[0,0,0,0,0,0,0,0,0,0,0,0,0,0,0,0,0,0,0,0,0,0,0,0,0,0,0,0,0,0,0,0,0,0,0,0,0,0,0,0,0,0,0,0,0,0,0,0,0,0,0,0,0,0,0,0,0,0,0.2669,0.267,0,0.2795,0.2796,0.2797,0.2809,0.2808,0.2807,0.2807,0.3004,0.3009,0.3015,0,0,0,0,0,0,0,0,0,0,0,0,0,0.2491,0.2494,0.2668,0.2671,0.2673,0.2795,0.2796,0.2797,0.2809,0.2808,0.2807,0.2806,0.3002,0.3009,0.3016,0,0,0,0,0,0,0,0,0,0,0,0,0,0.2583,0.2495,0.2668,0.2697,0.2702,0.2795,0.2796,0.2798,0.2809,0.2808,0.2807,0.2806,0.2999,0.3008,0.3017,0.3096,0,0,0.3044,0.3048,0,0,0,0,0,0,0,0,0.2577,0.2588,0.2691,0.2696,0.2701,0.279,0.2806,0.2903,0.281,0.2762,0.2807,0.2805,0.2943,0.2957,0.2974,0.3106,0.3114,0.3045,0.3051,0.3054,0.3057,0,0,0,0,0,0,0,0.2571,0.2583,0.2713,0.2694,0.27,0.2724,0.2734,0.2824,0.2855,0.2767,0.2769,0.2793,0.2945,0.2965,0.2979,0.3117,0.3045,0.3053,0.3058,0.3062,0.349,0.3495,0,0,0,0,0,0,0.2566,0.2577,0.2709,0.2717,0.2641,0.2728,0.2739,0.2758,0.2853,0.2867,0.2794,0.2793,0.2951,0.2969,0.2986,0.3215,0.3054,0.3063,0.3068,0.3484,0.3491,0.3497,0,0,0,0,0,0,0.2561,0.2576,0.2704,0.2655,0.2673,0.2732,0.2753,0.2761,0.2866,0.2874,0.2888,0.2899,0.295,0.2974,0.318,0.3218,0.3067,0.3075,0.3477,0.3486,0.3494,0.3591,0,0,0,0,0,0,0.2556,0.2574,0.2604,0.2654,0.2676,0.2791,0.2755,0.2765,0.2879,0.2882,0.2969,0.2979,0.2951,0.3167,0.3189,0.3227,0.3082,0.3469,0.3481,0.3491,0.358,0.3602,0.3621,0,0,0,0,0,0.2549,0.2578,0.2604,0.2622,0.2709,0.2795,0.281,0.2842,0.2887,0.2934,0.3048,0.2981,0.3249,0.3183,0.3206,0.3247,0.3464,0.3478,0.3491,0.3571,0.3598,0.3621,0,0,0,0,0,0,0.2533,0.2585,0.2613,0.2664,0.2746,0.28,0.2839,0.2915,0.3041,0.3077,0.3101,0.3122,0.3293,0.3305,0.323,0.341,0.333,0.3349,0.3383,0.3409,0.3429,0.3348,0.3089,0,0,0,0,0,0.2545,0.2568,0.265,0.2699,0.2735,0.2824,0.2878,0.2937,0.3044,0.3099,0.3155,0.3249,0.3355,0.3418,0.3485,0.3631,0.3589,0.3666,0.3686,0.3703,0.3661,0.3723,0.3742,0.3542,0.3542,0.3541,0,0,0.2551,0.2588,0.2603,0.2698,0.2748,0.2812,0.2852,0.2968,0.3041,0.3108,0.323,0.3337,0.3421,0.3548,0.3621,0.3571,0.3741,0.372,0.3732,0.368,0.3738,0.3757,0.3773,0.3551,0.3549,0.3548,0,0,0.2564,0.2613,0.2636,0.2708,0.2825,0.2869,0.2936,0.3052,0.3113,0.3292,0.3348,0.3518,0.3649,0.3706,0.376,0.3962,0.3854,0.3978,0.4006,0.407,0.4084,0.4096,0.4048,0.4055,0.3978,0.3979,0.3979,0,0.2581,0.2616,0.2668,0.2725,0.2777,0.2907,0.2974,0.3059,0.3238,0.3298,0.3337,0.3591,0.3703,0.3851,0.3929,0.3995,0.3972,0.3895,0.4087,0.4098,0.4108,0.4057,0.4063,0.3985,0.3984,0.3984,0.3983,0,0.2599,0.2659,0.2685,0.2765,0.2837,0.2928,0.3039,0.3142,0.3254,0.3334,0.3526,0.3694,0.3835,0.391,0.3998,0.4136,0.4075,0.4105,0.3998,0.4132,0.4072,0.4076,0.3994,0.3992,0.399,0.3988,0,0,0.2546,0.2669,0.2683,0.2718,0.2877,0.2923,0.3049,0.3167,0.3247,0.3416,0.351,0.3768,0.3871,0.3945,0.4073,0.4147,0.4264,0.417,0.4171,0.407,0.4316,0.413,0.4115,0.4324,0.4327,0.4329,0.4233,0,0.255,0.2627,0.2699,0.278,0.2822,0.2955,0.3035,0.3175,0.3305,0.342,0.3604,0.3759,0.3877,0.3999,0.4105,0.4257,0.4283,0.4279,0.4242,0.4238,0.4016,0.4118,0.3862,0.3743,0.4236,0.4237,0.4237,0,0.2535,0.258,0.2661,0.2759,0.2787,0.2863,0.2989,0.3099,0.3291,0.3406,0.3582,0.3717,0.3938,0.4001,0.4209,0.4202,0.4259,0.4312,0.4311,0.4089,0.4061,0.3701,0.3731,0.4243,0.4243,0.4242,0.4242,0,0.2422,0.2543,0.259,0.2636,0.2776,0.2836,0.2923,0.3102,0.3195,0.3415,0.3516,0.3729,0.3902,0.4006,0.421,0.4221,0.4343,0.437,0.4192,0.4175,0.3918,0.3874,0.4418,0.4418,0.4418,0.4418,0.4419,0,0.2375,0.2404,0.2546,0.2568,0.2615,0.2759,0.2853,0.2978,0.3176,0.3291,0.3523,0.3661,0.3927,0.4055,0.416,0.4192,0.4314,0.4167,0.4153,0.3945,0.3907,0.4318,0.4307,0.4415,0.4416,0.4416,0.4417,0,0.2245,0.2356,0.2392,0.2524,0.2573,0.261,0.2797,0.2864,0.3087,0.325,0.3332,0.3643,0.3817,0.3957,0.4143,0.4132,0.417,0.4124,0.3806,0.3756,0.394,0.3937,0.3875,0.3868,0.3862,0.3857,0.3853,0,0.2181,0.2197,0.2316,0.2346,0.2414,0.2511,0.2585,0.2806,0.2907,0.3237,0.3303,0.3532,0.3688,0.3825,0.381,0.3793,0.4003,0.3541,0.3521,0.3898,0.3892,0.3898,0.3904,0.3212,0.3203,0.3196,0.319,0,0.2023,0.2086,0.2113,0.2189,0.2263,0.2339,0.2481,0.255,0.283,0.2986,0.3243,0.3388,0.3494,0.3424,0.3376,0.3355,0.3525,0.3379,0.3905,0.3388,0.3266,0.3263,0.3291,0.3124,0.313,0.3135,0.3139,0.3142,0.1893,0.188,0.1954,0.2019,0.2097,0.2196,0.2265,0.2428,0.2589,0.2798,0.2996,0.3119,0.314,0.2939,0.2868,0.2818,0.3017,0.2964,0.2991,0.3025,0.2964,0.2839,0.2599,0.2602,0.2605,0.2608,0.261,0,0.1731,0.1774,0.179,0.1886,0.1938,0.2071,0.2209,0.2288,0.2464,0.2556,0.2705,0.2488,0.2421,0.2502,0.2287,0.223,0.2258,0.2209,0.227,0.2334,0.2392,0.2305,0.1761,0.1759,0.1756,0.1754,0,0,0.1647,0.1635,0.1666,0.173,0.1841,0.1963,0.2066,0.2167,0.2248,0.2216,0.2212,0.2264,0.2412,0.2033,0.1959,0.187,0.2105,0.1805,0.2483,0.262,0.2676,0.2812,0.2746,0,0,0,0,0]},{"header":{"parameterUnit":"m.s-1","parameterCategory":2,"la1":30.2991,"la2":30.254,"lo1":-89.0895,"lo2":-89.0444,"dy":0.0017,"dx":0.0017,"nx":28,"ny":28,"refTime":"2023-08-13T21:00:00:Z","depth":"2","parameterNumber":3,"parameterNumberName":"V-component_of_CURRENTS"},"data":[0,0,0,0,0,0,0,0,0,0,0,0,0,0,0,0,0,0,0,0,0,0,0,0,0,0,0,0,0,0,0,0,0,0,0,0,0,0,0,0,0,0,0,0,0,0,0,0,0,0,0,0,0,0,0,0,0,0,-0.0507,-0.0507,0,-0.0533,-0.0533,-0.0534,-0.0561,-0.0562,-0.0562,-0.0562,-0.0595,-0.0595,-0.0596,0,0,0,0,0,0,0,0,0,0,0,0,0,-0.0512,-0.0511,-0.0507,-0.0507,-0.0507,-0.0533,-0.0533,-0.0534,-0.0561,-0.0562,-0.0562,-0.0562,-0.0594,-0.0595,-0.0596,0,0,0,0,0,0,0,0,0,0,0,0,0,-0.0522,-0.0511,-0.0507,-0.0523,-0.0524,-0.0533,-0.0533,-0.0534,-0.0561,-0.0562,-0.0562,-0.0562,-0.0594,-0.0595,-0.0596,-0.0595,0,0,-0.0599,-0.0599,0,0,0,0,0,0,0,0,-0.0522,-0.0522,-0.052,-0.0521,-0.0523,-0.0543,-0.0547,-0.0554,-0.0561,-0.0549,-0.0562,-0.0562,-0.0576,-0.0579,-0.0585,-0.0597,-0.0598,-0.0599,-0.06,-0.06,-0.06,0,0,0,0,0,0,0,-0.0521,-0.0522,-0.0519,-0.052,-0.0522,-0.0539,-0.0541,-0.0549,-0.0562,-0.055,-0.0552,-0.0552,-0.0578,-0.0584,-0.0586,-0.0599,-0.0599,-0.06,-0.0601,-0.0601,-0.0517,-0.0514,0,0,0,0,0,0,-0.0512,-0.0521,-0.0518,-0.0519,-0.0521,-0.0538,-0.054,-0.0537,-0.0562,-0.0565,-0.0551,-0.0553,-0.0583,-0.0585,-0.0588,-0.0486,-0.06,-0.0601,-0.0602,-0.052,-0.0516,-0.0513,0,0,0,0,0,0,-0.0512,-0.0511,-0.0517,-0.052,-0.0521,-0.0537,-0.0534,-0.0538,-0.0509,-0.0562,-0.0566,-0.0514,-0.0583,-0.0586,-0.0525,-0.0491,-0.0601,-0.0602,-0.0523,-0.0519,-0.0515,-0.0348,0,0,0,0,0,0,-0.0512,-0.0511,-0.05,-0.0519,-0.0521,-0.0493,-0.0534,-0.0538,-0.051,-0.0511,-0.0532,-0.0538,-0.0583,-0.0522,-0.0526,-0.0495,-0.0603,-0.0527,-0.0521,-0.0516,-0.0357,-0.0339,-0.0323,0,0,0,0,0,-0.0512,-0.0488,-0.05,-0.0499,-0.0507,-0.0491,-0.0493,-0.0508,-0.0507,-0.0484,-0.0467,-0.0536,-0.0493,-0.0519,-0.0524,-0.0493,-0.0529,-0.0523,-0.0516,-0.0365,-0.0342,-0.0323,0,0,0,0,0,0,-0.0472,-0.0489,-0.0502,-0.0481,-0.0476,-0.0495,-0.048,-0.0476,-0.0448,-0.0432,-0.0479,-0.0481,-0.0433,-0.0468,-0.0496,-0.0453,-0.0531,-0.0525,-0.0415,-0.0394,-0.0377,-0.0384,-0.0604,0,0,0,0,0,-0.0462,-0.0456,-0.0464,-0.0446,-0.0441,-0.0449,-0.0441,-0.0434,-0.0418,-0.0406,-0.0428,-0.0431,-0.0418,-0.0403,-0.042,-0.037,-0.0456,-0.036,-0.0343,-0.0328,-0.0335,-0.0397,-0.0387,-0.0492,-0.0492,-0.0492,0,0,-0.0443,-0.045,-0.0447,-0.0438,-0.0442,-0.0413,-0.0445,-0.0404,-0.0374,-0.0412,-0.0375,-0.0375,-0.0391,-0.0347,-0.033,-0.0364,-0.0342,-0.032,-0.0307,-0.0323,-0.0389,-0.0379,-0.0371,-0.0488,-0.0489,-0.0489,0,0,-0.0396,-0.0405,-0.0383,-0.0372,-0.0353,-0.0356,-0.0329,-0.0322,-0.0315,-0.0265,-0.0281,-0.0234,-0.0247,-0.0234,-0.023,-0.0121,-0.0257,-0.0137,-0.0044,-0.0102,-0.0095,-0.009,-0.0192,-0.0197,-0.0118,-0.0118,-0.0118,0,-0.0371,-0.0339,-0.0368,-0.0335,-0.0312,-0.032,-0.0264,-0.0262,-0.0232,-0.0211,-0.0236,-0.0207,-0.0198,-0.0131,-0.0074,-0.0085,-0.0163,-0.0118,-0.0082,-0.0079,-0.0076,-0.0183,-0.0191,-0.0109,-0.011,-0.0111,-0.0112,0,-0.0309,-0.0273,-0.0252,-0.0225,-0.0205,-0.015,-0.0149,-0.0116,-0.011,-0.0115,-0.0067,-0.006,-0.0037,-0.0023,-0.0001,0.0043,-0.0035,-0.0063,-0.0139,-0.0056,-0.0173,-0.0184,-0.0097,-0.01,-0.0102,-0.0105,0,0,-0.0269,-0.0217,-0.0206,-0.016,-0.0128,-0.0093,-0.0045,0.0001,0.006,0.0034,0.0086,0.0128,0.0121,0.0128,0.0141,0.012,0.0109,0.0063,0.0056,-0.0047,-0.0063,-0.0079,-0.0095,0.0081,0.008,0.008,-0.0156,0,-0.02,-0.0107,-0.0106,-0.0001,0.0057,0.0064,0.0111,0.0149,0.0164,0.0202,0.0177,0.0218,0.0175,0.0228,0.0199,0.0152,0.0087,0.0172,-0.0122,-0.0132,-0.0162,-0.0104,-0.0066,-0.0269,-0.0168,-0.017,-0.0172,0,-0.0126,-0.0071,0.0039,0.0139,0.0164,0.0214,0.0313,0.0362,0.0392,0.0405,0.0406,0.0366,0.0377,0.0313,0.0171,0.0224,0.0093,0.0005,-0.0007,-0.0092,-0.0167,-0.0333,-0.0295,-0.0192,-0.0191,-0.0189,-0.0188,0,-0.0059,0.0043,0.0141,0.0171,0.0262,0.0319,0.0373,0.0428,0.0503,0.0534,0.0589,0.051,0.0531,0.0335,0.0193,0.0173,-0.0007,-0.0073,-0.0254,-0.0261,-0.0322,-0.033,-0.0235,-0.0235,-0.0235,-0.0234,-0.0233,0,0.0029,0.0116,0.0183,0.0241,0.0376,0.0401,0.0548,0.0594,0.0673,0.0785,0.0706,0.0775,0.0544,0.0426,0.0211,-0.003,-0.0015,-0.0245,-0.0308,-0.0261,-0.0261,-0.0267,-0.0267,-0.0243,-0.0241,-0.0239,-0.0238,0,0.0104,0.0147,0.0272,0.0372,0.0417,0.0514,0.0668,0.0776,0.0836,0.0981,0.0997,0.0974,0.0795,0.0516,0.0233,0.0041,-0.022,-0.0326,-0.0267,-0.0317,-0.0471,-0.046,-0.0608,-0.061,-0.0612,-0.0613,-0.0614,0,0.0159,0.0227,0.0363,0.0446,0.05,0.0644,0.0758,0.0854,0.0972,0.1119,0.1196,0.1085,0.1022,0.0584,0.0188,-0.0272,-0.0288,-0.0481,-0.0507,-0.0455,-0.0503,-0.0489,-0.0475,-0.055,-0.055,-0.0551,-0.0551,0,0.0264,0.0304,0.0399,0.0559,0.0687,0.0851,0.101,0.1128,0.1261,0.1368,0.1507,0.1463,0.1048,0.063,0.0045,-0.023,-0.0408,-0.0509,-0.0462,-0.043,-0.041,-0.0453,-0.0441,-0.0556,-0.0556,-0.0555,-0.0555,-0.0555,0.034,0.0424,0.054,0.0697,0.0846,0.1047,0.1199,0.1372,0.1566,0.1686,0.1642,0.1543,0.1078,0.0275,-0.0104,-0.0474,-0.0525,-0.0658,-0.0653,-0.0648,-0.0567,-0.0548,-0.071,-0.071,-0.071,-0.0711,-0.0711,0,0.0435,0.0531,0.0678,0.0872,0.1042,0.1102,0.1362,0.1515,0.1756,0.1748,0.1757,0.1273,0.0785,0.0319,-0.025,-0.0611,-0.0602,-0.0686,-0.0609,-0.0605,-0.0601,-0.0513,-0.0645,-0.0645,-0.0645,-0.0645,0,0,0.0496,0.0645,0.072,0.1007,0.114,0.138,0.1534,0.1764,0.1842,0.1825,0.1682,0.1325,0.0826,0.0393,-0.0084,-0.0328,-0.036,-0.0365,-0.0394,-0.0244,-0.0233,-0.0579,-0.0438,0,0,0,0,0]}],[{"header":{"parameterUnit":"m.s-1","parameterCategory":2,"la1":30.2991,"la2":30.254,"lo1":-89.0895,"lo2":-89.0444,"dy":0.0017,"dx":0.0017,"nx":28,"ny":28,"refTime":"2023-08-13T21:00:00:Z","depth":"4","parameterNumber":2,"parameterNumberName":"U-component_of_CURRENTS"},"data":[0,0,0,0,0,0,0,0,0,0,0,0,0,0,0,0,0,0,0,0,0,0,0,0,0,0,0,0,0,0,0,0,0,0,0,0,0,0,0,0,0,0,0,0,0,0,0,0,0,0,0,0,0,0,0,0,0,0,0.0802,0.0803,0,0.0865,0.0866,0.0867,0.0937,0.0938,0.0939,0.094,0.1016,0.1017,0.1018,0,0,0,0,0,0,0,0,0,0,0,0,0,0.0731,0.0732,0.0802,0.0803,0.0804,0.0865,0.0866,0.0867,0.0936,0.0938,0.0939,0.0941,0.1016,0.1017,0.1018,0,0,0,0,0,0,0,0,0,0,0,0,0,0.0773,0.0732,0.0801,0.0848,0.0853,0.0865,0.0866,0.0867,0.0936,0.0938,0.094,0.0942,0.1016,0.1017,0.1018,0.0989,0,0,0.1022,0.1023,0,0,0,0,0,0,0,0,0.077,0.0775,0.084,0.0845,0.085,0.0897,0.0869,0.0909,0.0936,0.0902,0.094,0.0942,0.0978,0.0982,0.0987,0.0993,0.0996,0.1022,0.1023,0.1024,0.1024,0,0,0,0,0,0,0,0.0767,0.0773,0.0824,0.0841,0.0847,0.0862,0.087,0.0877,0.0927,0.0905,0.0911,0.0921,0.0981,0.0985,0.0989,0.0997,0.1022,0.1023,0.1024,0.1025,0.1091,0.1092,0,0,0,0,0,0,0.0763,0.077,0.0822,0.0827,0.0817,0.0862,0.0871,0.0878,0.0927,0.0937,0.0919,0.0924,0.0982,0.0987,0.0992,0.1077,0.1024,0.1025,0.1026,0.109,0.1091,0.1092,0,0,0,0,0,0,0.0761,0.0767,0.082,0.0802,0.081,0.0862,0.0869,0.0878,0.0919,0.0938,0.0948,0.0955,0.0984,0.099,0.1024,0.1076,0.1026,0.1027,0.1089,0.109,0.1092,0.1172,0,0,0,0,0,0,0.0758,0.0765,0.0783,0.0801,0.0811,0.0843,0.0868,0.0878,0.0921,0.0929,0.097,0.0978,0.0986,0.1022,0.1025,0.1077,0.1028,0.1088,0.1089,0.1091,0.1168,0.1176,0.1183,0,0,0,0,0,0.0756,0.0765,0.0783,0.0791,0.0829,0.0843,0.0849,0.0891,0.0921,0.0935,0.0968,0.0978,0.1036,0.1023,0.1027,0.1081,0.1087,0.1089,0.1091,0.1165,0.1174,0.1183,0,0,0,0,0,0,0.0735,0.0774,0.0794,0.0814,0.0836,0.0857,0.088,0.0905,0.094,0.0967,0.0981,0.099,0.1031,0.1037,0.1022,0.1102,0.1067,0.107,0.1122,0.1131,0.1138,0.1124,0.1029,0,0,0,0,0,0.0739,0.0763,0.0791,0.0807,0.0825,0.0858,0.0877,0.0908,0.0936,0.0956,0.0982,0.1015,0.1035,0.107,0.1072,0.1121,0.1102,0.1159,0.1166,0.1173,0.1163,0.1162,0.1168,0.1099,0.1099,0.1099,0,0,0.0731,0.0759,0.0771,0.0806,0.0832,0.086,0.0874,0.0916,0.0953,0.0956,0.1017,0.1026,0.1044,0.1092,0.1116,0.1117,0.1188,0.1176,0.1181,0.1167,0.1165,0.1171,0.1177,0.1101,0.1101,0.11,0,0,0.0729,0.0759,0.0785,0.0809,0.0861,0.0881,0.0899,0.094,0.098,0.1023,0.1039,0.1067,0.1114,0.1134,0.1151,0.1195,0.1204,0.1227,0.1287,0.1287,0.1293,0.1297,0.1305,0.131,0.126,0.126,0.126,0,0.073,0.0759,0.079,0.0823,0.0852,0.0894,0.0927,0.0963,0.1013,0.1048,0.1054,0.111,0.1123,0.1181,0.1213,0.1211,0.1225,0.1258,0.1297,0.1301,0.1304,0.1311,0.1315,0.1264,0.1264,0.1263,0.1263,0,0.0739,0.0778,0.0793,0.0853,0.0885,0.0917,0.0972,0.1016,0.1065,0.1103,0.1162,0.1169,0.1208,0.1231,0.1245,0.13,0.1306,0.1285,0.1276,0.1316,0.1321,0.1323,0.127,0.1269,0.1267,0.1266,0,0,0.07,0.0788,0.0795,0.0836,0.091,0.0933,0.1003,0.1069,0.1126,0.1172,0.123,0.1269,0.1289,0.1305,0.1328,0.1349,0.1393,0.1358,0.1357,0.1369,0.1424,0.1385,0.1384,0.1404,0.1404,0.1405,0.1426,0,0.0704,0.0769,0.0813,0.0875,0.0915,0.0978,0.1038,0.1111,0.1171,0.1233,0.1268,0.1327,0.132,0.1365,0.1377,0.1379,0.1401,0.1389,0.1379,0.1378,0.1341,0.1385,0.1406,0.1428,0.1428,0.1429,0.1429,0,0.0698,0.0746,0.0812,0.091,0.0934,0.0982,0.1084,0.1148,0.1249,0.1306,0.1364,0.1394,0.1445,0.1421,0.1437,0.1446,0.1445,0.1434,0.1435,0.1365,0.1344,0.1372,0.1433,0.1433,0.1432,0.1432,0.1432,0,0.0651,0.0744,0.0801,0.083,0.0942,0.0995,0.1066,0.1175,0.1244,0.1366,0.1421,0.1468,0.1511,0.1497,0.1493,0.1488,0.149,0.1466,0.1421,0.1419,0.141,0.1405,0.1462,0.1462,0.1462,0.1462,0.1462,0,0.063,0.0671,0.079,0.0815,0.09,0.0993,0.1091,0.1177,0.1292,0.1372,0.1465,0.1508,0.1539,0.1548,0.1517,0.1482,0.1508,0.1429,0.142,0.1447,0.1445,0.1413,0.1407,0.1463,0.1463,0.1463,0.1462,0,0.0563,0.0641,0.0706,0.083,0.0883,0.0945,0.1106,0.1165,0.1305,0.1403,0.1455,0.1559,0.1592,0.1593,0.158,0.1521,0.1481,0.1462,0.151,0.1503,0.1403,0.1401,0.1407,0.1406,0.1405,0.1404,0.1403,0,0.0536,0.0568,0.0698,0.0748,0.081,0.0926,0.1004,0.1161,0.122,0.1409,0.143,0.154,0.1591,0.1532,0.1544,0.15,0.1478,0.1459,0.1409,0.1406,0.1397,0.1397,0.1396,0.1401,0.1401,0.1401,0.1401,0,0.0477,0.0528,0.0572,0.068,0.0767,0.0862,0.0981,0.1022,0.1197,0.1319,0.1401,0.145,0.1494,0.1489,0.1494,0.1444,0.1466,0.1447,0.1448,0.1401,0.14,0.1392,0.1392,0.1397,0.1398,0.1398,0.1398,0,0.0425,0.0439,0.0514,0.06,0.0708,0.0785,0.0857,0.0949,0.1042,0.1246,0.1259,0.1377,0.1472,0.146,0.1438,0.1424,0.1393,0.1334,0.134,0.1344,0.1315,0.1304,0.1267,0,0,0,0,0,0.038,0.0391,0.0446,0.0539,0.0636,0.0705,0.0838,0.0906,0.1063,0.1092,0.1186,0.123,0.1286,0.1328,0.1297,0.139,0.1376,0.1348,0.1305,0.1378,0.1382,0.1354,0,0,0,0,0,0,0.0347,0.0384,0.0406,0.0476,0.0527,0.063,0.071,0.0808,0.0833,0.0995,0.1014,0.1153,0.1193,0.1278,0.1267,0.1282,0.1232,0.142,0.1417,0.1375,0.1379,0.1382,0.1355,0,0,0,0,0]},{"header":{"parameterUnit":"m.s-1","parameterCategory":2,"la1":30.2991,"la2":30.254,"lo1":-89.0895,"lo2":-89.0444,"dy":0.0017,"dx":0.0017,"nx":28,"ny":28,"refTime":"2023-08-13T21:00:00:Z","depth":"4","parameterNumber":3,"parameterNumberName":"V-component_of_CURRENTS"},"data":[0,0,0,0,0,0,0,0,0,0,0,0,0,0,0,0,0,0,0,0,0,0,0,0,0,0,0,0,0,0,0,0,0,0,0,0,0,0,0,0,0,0,0,0,0,0,0,0,0,0,0,0,0,0,0,0,0,0,-0.0159,-0.016,0,-0.0228,-0.0229,-0.0229,-0.0257,-0.0257,-0.0257,-0.0256,-0.037,-0.0373,-0.0377,0,0,0,0,0,0,0,0,0,0,0,0,0,-0.0095,-0.0096,-0.0159,-0.016,-0.0161,-0.0228,-0.0229,-0.023,-0.0257,-0.0257,-0.0257,-0.0256,-0.0369,-0.0373,-0.0377,0,0,0,0,0,0,0,0,0,0,0,0,0,-0.014,-0.0096,-0.0159,-0.0182,-0.0185,-0.0227,-0.0229,-0.023,-0.0257,-0.0257,-0.0257,-0.0256,-0.0368,-0.0373,-0.0377,-0.0414,0,0,-0.0392,-0.0394,0,0,0,0,0,0,0,0,-0.0137,-0.0142,-0.0178,-0.0181,-0.0184,-0.0233,-0.0248,-0.0294,-0.0257,-0.0231,-0.0256,-0.0256,-0.0328,-0.0336,-0.035,-0.042,-0.0425,-0.0393,-0.0396,-0.0398,-0.0399,0,0,0,0,0,0,0,-0.0134,-0.014,-0.0187,-0.0179,-0.0182,-0.0203,-0.0209,-0.0256,-0.0282,-0.0233,-0.0235,-0.0241,-0.033,-0.0346,-0.0353,-0.0426,-0.0393,-0.0397,-0.04,-0.0402,-0.0571,-0.0573,0,0,0,0,0,0,-0.0122,-0.0136,-0.0185,-0.0189,-0.0158,-0.0204,-0.0211,-0.0218,-0.0281,-0.0289,-0.0241,-0.0242,-0.0338,-0.0348,-0.0358,-0.0426,-0.0398,-0.0402,-0.0405,-0.057,-0.0572,-0.0574,0,0,0,0,0,0,-0.012,-0.0126,-0.0182,-0.0164,-0.0172,-0.0206,-0.0214,-0.022,-0.0243,-0.0286,-0.0296,-0.0259,-0.0338,-0.0351,-0.0414,-0.043,-0.0405,-0.0409,-0.0568,-0.057,-0.0573,-0.055,0,0,0,0,0,0,-0.0118,-0.0125,-0.0134,-0.0163,-0.0173,-0.0206,-0.0214,-0.0221,-0.0246,-0.0248,-0.0305,-0.0314,-0.0338,-0.0407,-0.0419,-0.0436,-0.0413,-0.0566,-0.0569,-0.0572,-0.0549,-0.0552,-0.0554,0,0,0,0,0,-0.0116,-0.0123,-0.0134,-0.014,-0.0182,-0.0207,-0.0214,-0.0237,-0.0247,-0.0257,-0.0304,-0.0313,-0.0434,-0.0412,-0.0426,-0.0445,-0.0565,-0.0568,-0.0572,-0.0548,-0.0551,-0.0554,0,0,0,0,0,0,-0.0103,-0.0127,-0.014,-0.0156,-0.018,-0.0211,-0.0224,-0.0243,-0.0288,-0.0299,-0.0336,-0.035,-0.0409,-0.0439,-0.0413,-0.0505,-0.05,-0.0507,-0.0477,-0.0481,-0.0483,-0.0445,-0.0417,0,0,0,0,0,-0.0104,-0.0114,-0.0142,-0.0157,-0.0167,-0.02,-0.0216,-0.0236,-0.0274,-0.0293,-0.0332,-0.0384,-0.0435,-0.0465,-0.051,-0.0566,-0.0576,-0.0589,-0.0591,-0.0593,-0.0574,-0.061,-0.0613,-0.0585,-0.0585,-0.0585,0,0,-0.0102,-0.0119,-0.0124,-0.0155,-0.0176,-0.0186,-0.0209,-0.0237,-0.0251,-0.0301,-0.0341,-0.0394,-0.0452,-0.0508,-0.0537,-0.0535,-0.0611,-0.0597,-0.0598,-0.0578,-0.0614,-0.0617,-0.0619,-0.0588,-0.0587,-0.0587,0,0,-0.0094,-0.0119,-0.012,-0.0137,-0.017,-0.019,-0.0198,-0.0238,-0.0261,-0.0309,-0.0352,-0.0409,-0.0484,-0.0524,-0.0555,-0.0602,-0.0619,-0.0631,-0.0614,-0.0651,-0.0653,-0.0654,-0.0677,-0.068,-0.0634,-0.0634,-0.0634,0,-0.0096,-0.0097,-0.0126,-0.0131,-0.014,-0.0187,-0.0189,-0.0221,-0.0279,-0.0303,-0.0317,-0.0433,-0.0482,-0.0548,-0.0567,-0.0602,-0.0626,-0.0594,-0.065,-0.0652,-0.0654,-0.0677,-0.0681,-0.0634,-0.0634,-0.0634,-0.0634,0,-0.008,-0.0087,-0.009,-0.0106,-0.0124,-0.0137,-0.0175,-0.0206,-0.0242,-0.0278,-0.0349,-0.0421,-0.0484,-0.0521,-0.0559,-0.0612,-0.0626,-0.0643,-0.0631,-0.0654,-0.0679,-0.0683,-0.0633,-0.0633,-0.0633,-0.0633,0,0,-0.0066,-0.0076,-0.0077,-0.0075,-0.0111,-0.0122,-0.0149,-0.0187,-0.0209,-0.0275,-0.0306,-0.0402,-0.0447,-0.0485,-0.055,-0.0589,-0.0631,-0.0624,-0.0626,-0.0625,-0.071,-0.067,-0.0671,-0.0665,-0.0666,-0.0667,-0.0722,0,-0.0046,-0.0036,-0.0051,-0.0046,-0.0043,-0.0085,-0.0102,-0.0149,-0.0199,-0.0246,-0.0327,-0.0386,-0.0433,-0.0476,-0.0522,-0.0609,-0.0642,-0.0614,-0.0705,-0.0707,-0.0652,-0.0675,-0.0669,-0.0726,-0.0727,-0.0728,-0.0728,0,-0.0023,-0.0017,-0.0002,-0.0008,-0.0012,-0.0018,-0.0054,-0.0078,-0.0157,-0.0199,-0.0269,-0.0339,-0.0422,-0.0452,-0.0574,-0.0559,-0.0624,-0.068,-0.0684,-0.065,-0.0675,-0.0701,-0.0737,-0.0736,-0.0736,-0.0735,-0.0734,0,0.0013,0.0015,0.0032,0.0031,0.0014,0.0011,-0.0004,-0.0066,-0.0086,-0.0173,-0.0201,-0.0309,-0.0364,-0.0457,-0.0576,-0.0584,-0.0697,-0.0721,-0.0739,-0.0737,-0.0763,-0.0761,-0.0785,-0.0785,-0.0785,-0.0785,-0.0784,0,0.0041,0.0053,0.0052,0.0064,0.0079,0.0051,0.0045,0.001,-0.0042,-0.0062,-0.0172,-0.0213,-0.0369,-0.046,-0.0561,-0.0657,-0.0683,-0.0726,-0.0747,-0.0757,-0.0753,-0.0767,-0.0764,-0.0787,-0.0786,-0.0786,-0.0786,0,0.0068,0.0069,0.0092,0.0094,0.0098,0.0106,0.0097,0.0086,0.0034,0.0008,-0.0016,-0.0147,-0.0268,-0.041,-0.0569,-0.0626,-0.073,-0.0756,-0.0744,-0.0765,-0.075,-0.0746,-0.0777,-0.0776,-0.0775,-0.0774,-0.0774,0,0.0081,0.0097,0.0123,0.014,0.0143,0.0153,0.0159,0.0126,0.0119,0.0053,0.0044,-0.0082,-0.0178,-0.0361,-0.052,-0.0693,-0.0716,-0.0756,-0.076,-0.073,-0.0749,-0.0746,-0.0743,-0.0772,-0.0772,-0.0772,-0.0772,0,0.0105,0.0115,0.0135,0.0177,0.0197,0.0214,0.0223,0.0233,0.0198,0.0162,0.0102,-0.0017,-0.0152,-0.0332,-0.0468,-0.0596,-0.0724,-0.0748,-0.0751,-0.0754,-0.0725,-0.0744,-0.0742,-0.0769,-0.0769,-0.077,-0.077,0,0.0121,0.0138,0.0169,0.0201,0.0235,0.0258,0.0262,0.0259,0.0252,0.0198,0.018,0.0016,-0.0088,-0.0281,-0.0408,-0.0529,-0.056,-0.058,-0.0593,-0.0598,-0.0532,-0.0468,-0.0441,0,0,0,0,0,0.0134,0.0152,0.0187,0.0224,0.0261,0.0274,0.0295,0.0292,0.0283,0.0264,0.0227,0.0104,-0.0097,-0.021,-0.032,-0.0408,-0.0592,-0.0539,-0.0624,-0.0753,-0.0756,-0.0706,0,0,0,0,0,0,0.0139,0.0173,0.0188,0.0238,0.0264,0.0297,0.0311,0.0303,0.0288,0.0265,0.0151,0.0101,-0.0113,-0.0032,-0.0317,-0.0359,-0.0419,-0.0643,-0.0645,-0.0751,-0.0754,-0.0757,-0.0706,0,0,0,0,0]}]]